Probability
0 0 0 0 0 0 0 0 0 0 0 0 0 0 0 0 0 0 0 0 0 0 0 0 0 0 0 0 0 0 0 0 0 0 0 0 0 0 0 0 0 0 0 0
0 0 0 0 0 0 0 0 0 0 0 0 0 0 0 0 0 0 0 0 0 0 0 0 0 0 0 0 0 0 0 0 0 0 0 0 0 0 0 0 0 0 0 0
0 0 0 0 0 0 0 0 0 0 0 0 0 0 0 0 0 0 0 0 0 0 0 0 0 0 0 0 0 0 0 0 0 0 0 0 0 0 0 0 0 0 0 0
0 0 0 0 0 0 0 0 0 0 0 0 0 0 0 0 0 0 0 0 0 0 0 0 0 0 0 0 0 0 0 0 0 0 0 0 0 0 0 0 0 0 0 0
0 0 0 0 0 0 0 0 0 0 0 0 0 0 0 0 0 0 0 0 0 0 0 0 0 0 0 0 0 0 0 0 0 0 0 0 0 0 0 0 0 0 0 0
0 0 0 0 0 0 0 0 0 0 0 0 0 0 0 0 0 0 0 0 0 0 0 0 0 0 0 0 0 0 0 0 0 0 0 0 0 0 0 0 0 0 0 0
0 0 0 0 0 0 0 0 0 0 0 0 0 0 0 0 0 0 0 0 0 0 0 0 0 0 0 0 0 0 0 0 0 0 0 0 0 0 0 0 0 0 0 0
0 0 0 0 0 0 0 0 0 0 0 0 0 0 0 0 0 0 0 0 0 0 0 0 0 0 0 0 0 0 0 0 0 0 0 0 0 0 0 0 0 0 0 0
0 0 0 0 0 0 0 0 0 0 0 0 0 0 0 0 0 0 0 0 0 0 0 0 0 0 0 0 0 0 0 0 0 0 0 0 0 0 0 0 0 0 0 0
0 0 0 0 0 0 0 0 0 0 0 0 0 0 0 0 0 0 0 0 0 0 0 0 0 0 0 0 0 0 0 0 0 0 0 0 0 0 0 0 0 0 0 0
0 0 0 0 0 0 0 0 0 0 0 0 0 0 0 0 0 0 0 0 0 0 0 0 0 0 0 0 0 0 0 0 0 0 0 0 0 0 0 0 0 0 0 0
0 0 0 0 0 0 0 0 0 0 0 0 0 0 0 0 0 0 0 0 0 0 0 0 0 0 0 0 0 0 0 0 0 0 0 0 0 0 0 0 0 0 0 0
0 0 0 0 0 0 0 0 0 0 0 0 0 0 0 0 0 0 0 0 0 0 0 0 0 0 0 0 0 0 0 0 0 0 0 0 0 0 0 0 0 0 0 0
0 0 0 0 0 0 0 0 0 0 0 0 0 0 0 0 0 0 0 0 0 0 0 0 0 0 0 0 0 0 0 0 0 0 0 0 0 0 0 0 0 0 0 0
0 0 0 0 0 0 0 0 0 0 0 0 0 0 0 0 0 0 0 0 0 0 0 0 0 0 0 0 0 0 0 0 0 0 0 0 0 0 0 0 0 0 0 0
0 0 0 0 0 0 0 0 0 0 0 0 0 0 0 0 0 0 0 0 0 0 0 0 0 0 0 0 0 0 0 0 0 0 0 0 0 0 0 0 0 0 0 0
0 0 0 0 0 0 0 0 0 0 0 0 0 0 0 0 0 0 0 0 0 0 0 0 0 0 0 0 0 0 0 0 0 0 0 0 0 0 0 0 0 0 0 0
0 0 0 0 0 0 0 0 0 0 0 0 0 0 0 0 0 0 0 0 0 0 0 0 0 0 0 0 0 0 0 0 0 0 0 0 0 0 0 0 0 0 0 0
0 0 0 0 0 0 0 0 0 0 0 0 0 0 0 0 0 0 0 0 0 0 0 0 0 0 0 0 0 0 0 0 0 0 0 0 0 0 0 0 0 0 0 0
0 0 0 0 0 0 0 0 0 0 0 0 0 0 0 0 0 0 0 0 0 0 0 0 0 0 0 0 0 0 0 0 0 0 0 0 0 0 0 0 0 0 0 0
0 0 0 0 0 0 0 0 0 0 0 0 0 0 0 0 0 0 0 0 0 0 0 0 0 0 0 0 0 0 0 0 0 0 0 0 0 0 0 0 0 0 0 0
0 0 0 0 0 0 0 0 0 0 0 0 0 0 0 0 0 0 0 0 0 0 0 0 0 0 0 0 0 0 0 0 0 0 0 0 0 0 0 0 0 0 0 0
0 0 0 0 0 0 0 0 0 0 0 0 0 0 0 0 0 0 0 0 0 0 0 0 0 0 0 0 0 0 0 0 0 0 0 0 0 0 0 0 0 0 0 0
0 0 0 0 0 0 0 0 0 0 0 0 0 0 0 0 0 0 0 0 0 0 0 0 0 0 0 0 0 0 0 0 0 0 0 0 0 0 0 0 0 0 0 0
0 0 0 0 0 0 0 0 0 0 0 0 0 0 0 0 0 0 0 0 0 0 0 0 0 0 0 0 0 0 0 0 0 0 0 0 0 0 0 0 0 0 0 0
0 0 0 0 0 0 0 0 0 0 0 0 0 0 0 0 0 0 0 0 0 0 0 0 0 0 0 0 0 0 0 0 0 0 0 0 0 0 0 0 0 0 0 0
Height
5649 5653 5655 5658 5661 5663 5666 5668 5670 5672 5674 5676 5677 5679 5681 5682 5684 5686 5687 5689 5691 5693 5696 5698 5701 5704 5707 5710 5713 5715 5718 5722 5725 5729 5733 5737 5741 5745 5748 5750 5754 5757 5760 5762
5651 5652 5655 5657 5659 5661 5663 5665 5667 5669 5670 5672 5673 5675 5676 5677 5678 5680 5681 5682 5684 5686 5688 5690 5693 5694 5697 5700 5703 5706 5709 5712 5715 5719 5723 5727 5731 5734 5737 5740 5743 5747 5750 5753
5651 5654 5655 5657 5658 5660 5662 5664 5665 5666 5667 5668 5669 5671 5672 5672 5673 5674 5675 5676 5677 5678 5680 5682 5684 5686 5688 5691 5694 5697 5700 5703 5706 5710 5713 5717 5720 5723 5727 5730 5734 5737 5740 5743
5653 5654 5655 5657 5658 5659 5661 5662 5663 5664 5664 5665 5666 5667 5668 5668 5668 5669 5670 5670 5671 5672 5673 5675 5676 5679 5681 5683 5686 5689 5692 5695 5698 5700 5704 5707 5710 5714 5717 5720 5723 5727 5730 5733
5654 5655 5656 5657 5658 5659 5660 5660 5661 5661 5662 5663 5663 5663 5665 5664 5664 5665 5665 5665 5665 5666 5667 5668 5669 5672 5674 5676 5679 5682 5684 5687 5689 5691 5694 5698 5701 5705 5708 5711 5714 5717 5720 5723
5655 5656 5656 5657 5657 5658 5658 5659 5660 5659 5660 5661 5661 5660 5661 5661 5660 5660 5661 5660 5661 5661 5662 5662 5663 5665 5667 5669 5672 5674 5677 5679 5680 5683 5685 5688 5693 5696 5699 5702 5705 5708 5711 5714
5657 5657 5657 5657 5657 5658 5658 5659 5659 5658 5658 5658 5658 5657 5659 5658 5657 5657 5657 5656 5656 5656 5656 5657 5658 5659 5661 5663 5665 5667 5669 5671 5673 5675 5678 5681 5685 5688 5691 5694 5697 5700 5703 5706
5659 5659 5658 5657 5657 5657 5657 5658 5659 5658 5657 5657 5656 5656 5657 5656 5655 5654 5653 5652 5651 5651 5651 5651 5652 5654 5655 5657 5659 5661 5663 5664 5666 5668 5671 5674 5678 5680 5683 5686 5689 5691 5694 5697
5660 5660 5659 5658 5658 5658 5657 5657 5658 5658 5657 5656 5655 5655 5655 5654 5652 5651 5650 5649 5648 5647 5647 5647 5647 5649 5650 5652 5654 5657 5658 5660 5661 5663 5665 5668 5671 5674 5677 5679 5682 5684 5686 5689
5662 5661 5660 5659 5659 5658 5658 5657 5658 5657 5656 5655 5654 5653 5653 5651 5650 5649 5648 5647 5645 5644 5644 5644 5644 5645 5646 5648 5650 5652 5654 5655 5656 5658 5660 5662 5665 5668 5671 5673 5676 5678 5680 5682
5663 5662 5662 5661 5660 5659 5659 5658 5657 5656 5655 5654 5653 5655 5652 5650 5648 5647 5645 5644 5643 5642 5641 5641 5642 5642 5643 5644 5646 5648 5650 5651 5653 5654 5656 5658 5661 5664 5666 5668 5670 5672 5674 5675
5664 5664 5662 5662 5660 5659 5658 5658 5657 5656 5655 5653 5652 5655 5650 5648 5646 5645 5643 5642 5640 5640 5639 5639 5640 5640 5641 5642 5643 5645 5647 5649 5650 5651 5653 5655 5658 5660 5662 5664 5665 5667 5668 5669
5665 5664 5663 5662 5663 5660 5658 5657 5656 5655 5654 5652 5651 5653 5648 5646 5645 5643 5642 5640 5639 5638 5638 5638 5638 5639 5640 5641 5642 5644 5646 5647 5648 5649 5650 5652 5655 5656 5658 5659 5660 5662 5663 5664
5665 5664 5664 5663 5660 5658 5657 5656 5655 5654 5652 5651 5650 5649 5647 5645 5643 5642 5640 5638 5637 5637 5637 5637 5637 5638 5638 5639 5641 5642 5644 5645 5646 5647 5648 5649 5651 5653 5654 5654 5655 5656 5657 5658
5664 5664 5662 5660 5659 5657 5656 5655 5653 5652 5651 5650 5649 5646 5645 5644 5642 5640 5639 5637 5636 5636 5635 5636 5636 5636 5637 5638 5639 5640 5641 5642 5644 5645 5646 5647 5648 5649 5649 5650 5651 5651 5652 5652
5663 5662 5661 5659 5657 5656 5655 5653 5652 5650 5649 5648 5646 5645 5644 5642 5640 5639 5637 5636 5635 5634 5634 5634 5634 5635 5636 5636 5637 5638 5639 5640 5642 5643 5644 5644 5645 5645 5646 5646 5646 5646 5646 5646
5661 5660 5658 5657 5655 5654 5653 5652 5650 5649 5647 5646 5644 5644 5642 5640 5639 5637 5636 5635 5634 5633 5633 5633 5633 5633 5634 5634 5635 5636 5637 5638 5639 5640 5641 5641 5642 5642 5642 5642 5642 5641 5640 5639
5658 5656 5655 5654 5653 5651 5653 5649 5648 5646 5645 5644 5642 5641 5640 5638 5637 5635 5634 5632 5632 5631 5631 5631 5631 5631 5632 5632 5633 5633 5634 5635 5636 5637 5637 5637 5638 5638 5638 5637 5637 5636 5635 5633
5654 5653 5651 5650 5648 5648 5649 5646 5644 5643 5642 5641 5639 5638 5637 5636 5634 5633 5631 5630 5629 5629 5629 5629 5628 5629 5629 5629 5630 5630 5631 5632 5633 5633 5633 5634 5634 5633 5633 5633 5632 5631 5629 5628
5650 5648 5647 5645 5643 5643 5646 5643 5640 5640 5639 5638 5636 5634 5633 5632 5631 5631 5629 5627 5626 5625 5625 5625 5625 5625 5626 5626 5626 5627 5628 5628 5629 5629 5629 5629 5629 5629 5628 5627 5626 5625 5624 5622
5644 5642 5641 5640 5637 5638 5640 5638 5636 5636 5636 5634 5631 5630 5629 5628 5627 5627 5625 5624 5622 5622 5621 5621 5621 5622 5622 5622 5623 5623 5624 5625 5625 5625 5625 5624 5624 5623 5623 5622 5621 5620 5618 5616
5637 5636 5635 5633 5632 5635 5633 5632 5631 5631 5629 5628 5627 5625 5624 5623 5622 5621 5621 5620 5619 5618 5617 5617 5617 5617 5618 5618 5618 5619 5620 5620 5620 5620 5619 5619 5619 5618 5617 5616 5615 5613 5612 5610
5629 5629 5627 5627 5629 5627 5626 5625 5625 5624 5623 5622 5621 5620 5620 5618 5617 5617 5616 5615 5614 5614 5613 5613 5612 5613 5613 5613 5613 5614 5614 5614 5614 5614 5614 5613 5613 5612 5611 5610 5608 5607 5605 5603
5622 5621 5619 5619 5620 5618 5617 5617 5617 5616 5616 5615 5615 5614 5613 5613 5612 5611 5611 5610 5609 5609 5608 5607 5607 5607 5607 5607 5608 5608 5608 5608 5608 5608 5607 5607 5606 5605 5604 5602 5600 5599 5597 5595
5613 5611 5610 5610 5611 5609 5609 5608 5608 5608 5608 5608 5607 5607 5606 5606 5605 5605 5604 5604 5603 5602 5602 5601 5601 5601 5601 5601 5601 5601 5601 5601 5601 5601 5600 5600 5599 5597 5596 5594 5592 5591 5589 5586
5604 5602 5600 5601 5601 5599 5600 5599 5599 5599 5599 5599 5599 5599 5598 5598 5597 5597 5597 5596 5596 5595 5595 5594 5594 5594 5594 5594 5594 5594 5594 5594 5593 5593 5592 5591 5590 5589 5588 5586 5584 5582 5580 5577
Wind_Speed
10 11 13 15 16 17 18 19 21 23 24 25 25 27 28 29 31 33 34 35 36 37 38 38 39 41 42 42 42 42 43 44 45 46 47 47 47 47 48 48 48 48 48 48
6 7 9 11 13 14 15 17 18 20 20 20 21 22 24 25 26 28 30 31 33 35 36 37 38 39 40 40 41 40 40 41 42 43 44 45 45 46 47 48 49 48 47 47
3 5 8 9 10 12 13 14 16 17 19 19 19 19 21 23 24 26 27 29 30 32 33 34 35 35 36 37 38 38 38 39 40 40 42 44 44 44 44 46 46 46 46 46
1 3 5 7 7 9 10 12 13 14 16 16 18 19 19 21 23 23 23 24 26 27 29 31 31 31 31 32 33 35 36 36 38 39 41 41 42 42 42 42 43 45 45 44
1 1 3 4 5 6 8 9 10 12 13 13 14 17 16 19 20 22 21 21 22 24 26 27 27 28 28 30 31 33 33 34 35 37 39 40 41 41 40 41 42 44 44 44
2 1 1 2 3 5 6 7 9 10 12 12 12 14 14 15 16 18 19 21 21 22 23 24 25 26 27 29 30 32 32 33 34 35 36 38 39 39 39 40 40 41 42 43
4 3 2 1 2 4 5 6 7 8 9 10 10 12 12 12 13 15 16 17 19 21 23 24 24 25 26 27 27 28 29 30 31 32 34 36 37 37 36 37 38 38 40 41
5 4 3 2 2 3 4 5 6 6 7 8 9 10 11 11 11 12 13 14 16 18 20 21 23 23 23 24 25 25 25 26 28 29 30 32 33 34 34 34 34 34 34 36
5 4 3 2 2 2 3 4 5 6 7 8 8 9 9 9 11 12 12 12 13 14 15 17 18 19 20 22 23 24 23 23 24 26 27 28 29 30 30 29 28 29 31 32
6 5 4 3 3 3 3 4 5 6 8 8 8 9 9 9 10 11 12 12 12 12 12 13 14 16 17 19 20 21 20 19 20 20 22 24 25 24 24 23 24 25 27 27
6 5 5 5 5 4 4 4 5 6 7 8 9 9 9 10 10 11 12 12 11 11 10 10 10 10 12 13 14 15 16 16 16 16 18 19 20 20 20 20 21 22 23 23
6 5 5 5 5 5 5 5 6 6 7 9 10 10 10 10 10 9 10 10 9 9 8 7 7 7 8 10 10 11 12 12 12 13 15 17 18 19 20 20 20 20 20 21
7 6 6 6 6 6 6 6 7 7 9 9 10 10 9 9 9 8 9 9 8 7 7 7 7 7 7 8 9 9 10 9 8 9 12 15 16 16 17 17 17 18 19 20
8 8 8 8 8 8 8 8 8 9 10 10 10 10 10 9 9 9 9 7 7 7 7 7 6 5 6 6 8 8 8 8 8 8 9 12 14 14 15 15 16 17 19 20
10 9 10 10 10 9 9 10 10 11 11 11 10 10 10 9 9 9 9 7 6 6 6 6 6 6 6 7 8 9 9 8 9 9 9 10 12 13 15 17 18 19 19 20
13 12 12 11 11 11 11 11 11 11 11 11 10 10 10 10 10 9 9 7 6 5 6 6 6 6 6 7 8 9 10 10 11 11 10 10 12 13 14 15 17 18 20 21
15 15 14 14 13 13 12 12 12 12 11 12 11 10 10 10 11 10 9 8 8 6 5 6 6 7 7 7 8 9 10 11 11 12 12 13 14 15 15 16 17 18 19 21
17 17 17 16 16 15 14 14 14 14 13 13 12 11 12 12 12 12 11 10 9 9 9 8 8 9 9 10 9 9 10 11 13 14 14 14 15 15 15 16 17 18 20 22
19 20 20 19 18 17 15 15 16 16 15 14 14 13 13 14 14 13 13 12 11 10 10 10 10 10 11 11 12 12 12 13 14 14 14 15 15 15 16 17 18 20 21 22
21 22 22 22 21 19 17 17 18 18 16 16 16 15 14 15 14 14 13 13 13 13 13 13 13 12 12 12 13 13 13 14 14 14 14 14 15 16 17 19 20 21 22 24
23 24 24 24 24 22 20 20 20 20 18 18 17 17 16 16 15 14 14 14 14 14 14 15 15 15 14 14 14 14 14 14 14 15 15 16 16 17 18 20 21 22 24 25
25 25 26 26 26 24 23 22 22 21 20 19 18 17 16 16 16 16 16 15 15 14 15 15 15 15 15 15 15 15 15 16 16 16 17 18 19 20 21 22 22 23 24 25
28 27 27 26 25 26 26 25 24 24 22 21 20 19 18 18 17 17 17 17 16 16 16 16 17 17 17 17 17 17 18 18 18 19 19 20 21 22 23 24 25 26 26 27
31 30 30 28 26 28 28 28 27 27 25 24 23 22 21 20 21 20 20 19 19 19 19 19 19 19 19 19 19 20 20 20 20 21 21 22 23 24 25 26 27 28 29 30
32 32 31 30 28 30 29 30 29 29 27 26 25 25 23 23 23 23 23 22 22 21 21 21 21 21 21 22 22 23 23 23 23 24 24 24 25 27 27 28 28 29 30 31
31 32 32 31 30 31 30 30 31 31 30 28 27 27 26 25 25 25 25 25 24 23 23 23 23 24 24 24 24 25 25 26 26 26 27 28 28 29 29 29 30 31 31 32
Wind_Direction
223 229 231 232 233 235 238 241 244 246 247 250 252 252 251 250 250 251 252 253 253 252 251 251 251 251 251 250 250 250 249 248 248 248 248 247 248 249 250 251 251 252 252 253
210 225 228 227 231 236 237 241 245 247 249 251 251 251 251 250 251 253 255 255 252 252 251 252 251 251 250 250 250 250 248 247 247 247 247 246 247 247 249 250 250 251 252 253
188 221 227 232 233 237 240 243 246 249 251 253 254 252 252 252 255 257 258 257 255 253 252 253 251 251 250 249 248 248 247 246 247 248 248 247 247 247 248 249 250 251 252 253
153 222 236 235 241 243 246 248 250 254 257 256 256 256 251 254 256 258 258 258 255 253 252 252 251 249 249 249 248 248 247 247 249 249 249 247 247 247 249 250 250 252 253 253
100 238 246 245 248 254 258 255 256 259 260 258 258 259 256 256 259 258 258 260 258 254 252 251 249 247 248 249 248 248 249 249 250 250 248 246 245 248 250 251 251 252 252 252
57 43 309 260 260 269 267 262 263 265 264 265 265 268 267 263 262 262 261 259 258 257 256 254 252 250 251 251 250 249 250 251 251 250 247 245 244 248 251 252 253 253 253 253
49 41 22 334 283 283 279 268 265 270 272 274 274 275 274 268 268 268 264 262 262 260 259 257 255 253 251 251 252 252 251 250 249 248 247 245 245 249 252 253 252 252 252 253
34 28 21 1 318 295 283 274 271 277 283 287 284 281 279 272 274 274 271 268 266 266 262 257 254 251 251 250 249 250 251 251 249 247 247 246 246 248 251 252 250 251 252 254
18 14 8 357 341 311 293 285 282 284 289 294 293 290 286 281 284 284 278 277 276 273 265 260 256 252 250 250 250 250 251 251 251 249 247 247 247 249 249 250 251 252 253 254
12 12 13 2 348 340 323 305 296 295 297 302 306 304 304 293 287 287 284 284 285 279 270 263 257 254 250 248 249 249 248 244 244 246 247 247 246 245 245 246 250 249 252 253
22 20 18 13 4 355 345 325 305 301 303 307 310 313 311 305 297 291 288 290 291 288 278 268 259 253 246 244 244 242 240 243 245 246 245 243 240 237 239 243 249 250 250 252
14 12 10 7 357 346 337 327 318 311 312 313 314 320 315 311 305 301 294 292 291 287 279 267 256 249 245 236 233 233 233 237 242 244 242 238 238 241 244 248 249 251 255 258
352 350 345 343 338 327 320 315 310 310 314 316 318 322 321 320 315 311 304 294 284 275 271 264 257 255 247 236 229 225 227 234 238 238 234 230 234 241 247 250 253 256 260 265
334 334 332 330 327 321 314 311 308 305 308 313 319 318 315 314 315 313 311 303 287 272 262 253 247 249 255 245 236 228 232 237 239 237 239 239 239 245 251 258 262 264 267 270
316 318 319 320 316 312 311 308 308 308 309 312 315 315 313 313 314 312 308 304 290 271 262 254 252 256 259 250 243 242 243 243 241 245 251 251 252 257 263 266 267 269 271 276
304 304 307 310 309 306 306 307 309 308 309 312 313 313 314 317 317 313 311 307 297 279 266 257 256 259 258 258 253 253 250 250 251 255 261 263 264 266 273 274 275 278 280 283
299 298 298 300 300 301 304 305 304 305 306 309 313 315 311 311 314 312 308 299 289 286 276 258 258 259 258 259 260 255 253 255 257 262 269 270 270 273 276 279 283 287 289 289
294 294 295 295 294 297 302 300 300 301 301 302 305 305 306 307 308 307 304 297 286 277 273 267 265 264 265 265 263 262 263 262 264 268 272 274 276 276 281 288 289 290 291 293
290 290 290 291 290 292 296 298 297 297 296 297 296 297 300 302 301 300 296 293 287 277 271 268 269 269 269 265 264 265 269 270 270 271 275 276 277 279 284 289 291 292 294 295
288 286 287 287 287 287 289 290 292 295 295 293 292 292 293 297 297 295 294 292 286 279 273 269 269 270 271 270 267 268 272 274 275 273 273 278 281 281 284 288 291 294 296 297
286 285 284 285 285 286 287 287 288 292 293 291 289 288 288 288 289 291 290 291 288 281 275 271 269 268 269 269 269 269 270 271 273 275 275 277 282 286 289 291 293 295 297 299
283 283 283 281 281 284 284 284 285 287 288 287 287 286 286 284 282 283 285 287 286 281 276 271 269 269 269 268 268 270 272 273 274 276 278 280 283 287 291 293 294 296 298 299
281 282 281 280 280 279 279 280 281 282 284 283 282 282 282 281 280 281 283 285 284 281 277 273 269 269 270 270 269 270 272 274 275 277 279 282 285 288 290 292 293 294 297 299
278 279 280 280 278 277 278 277 278 279 280 280 279 279 278 278 276 277 280 281 282 280 277 273 269 267 266 268 269 271 273 275 277 278 279 282 285 288 291 292 293 294 296 298
276 276 276 277 277 276 276 276 276 276 277 278 277 277 276 276 275 274 275 278 279 279 275 272 269 267 266 267 269 270 272 273 276 278 279 282 285 287 290 292 293 294 296 297
273 274 275 275 273 274 274 273 273 274 274 274 275 275 276 275 275 274 273 273 275 277 276 274 272 270 269 270 270 271 271 273 275 277 278 281 283 285 288 290 292 293 295 297